PRIVATE WETTERSTATION BILLIGHEIM-ALLFELD                       ZURCK
Wetterdaten: Mittwoch, 20.01.2016
Datum Zeit Temp. A. Temp. A. min Temp. A. max Feuchte A. Luftdruck Regen Wind Richtung Richtung Sonnenschein ET Solar Taupunkt Windchill Windben Empfang
20.01.2016 00:00 -8,2 C -8,4 C -8,2 C 92 % 1018,7 hPa 0,0 l/m 0,0 km/h (0 Bft) N 0 0 min 0,000 mm 0 W/m -9,3 C -8,2 C 0,0 km/h (0 Bft) 100 %
20.01.2016 00:10 -8,1 C -8,2 C -8,1 C 91 % 1018,7 hPa 0,0 l/m 0,0 km/h (0 Bft) N 0 0 min 0,000 mm 0 W/m -9,3 C -8,1 C 0,0 km/h (0 Bft) 100 %
20.01.2016 00:20 -7,9 C -8,1 C -7,9 C 91 % 1018,6 hPa 0,0 l/m 0,0 km/h (0 Bft) N 0 0 min 0,000 mm 0 W/m -9,1 C -7,9 C 0,0 km/h (0 Bft) 100 %
20.01.2016 00:30 -7,8 C -7,9 C -7,8 C 91 % 1018,5 hPa 0,0 l/m 0,0 km/h (0 Bft) N 0 0 min 0,000 mm 0 W/m -9,0 C -7,8 C 0,0 km/h (0 Bft) 96 %
20.01.2016 00:40 -7,7 C -7,8 C -7,6 C 92 % 1018,4 hPa 0,0 l/m 0,0 km/h (0 Bft) N 0 0 min 0,000 mm 0 W/m -8,8 C -7,7 C 0,0 km/h (0 Bft) 99 %
20.01.2016 00:50 -7,5 C -7,6 C -7,5 C 91 % 1018,4 hPa 0,0 l/m 0,0 km/h (0 Bft) N-NO 22 0 min 0,000 mm 0 W/m -8,7 C -7,5 C 1,6 km/h (1 Bft) 92 %
20.01.2016 01:00 -7,5 C -7,5 C -7,5 C 92 % 1018,4 hPa 0,0 l/m 0,0 km/h (0 Bft) NO 45 0 min 0,000 mm 0 W/m -8,6 C -7,5 C 1,6 km/h (1 Bft) 100 %
20.01.2016 01:10 -7,5 C -7,5 C -7,5 C 92 % 1018,5 hPa 0,0 l/m 0,0 km/h (0 Bft) O-NO 67 0 min 0,000 mm 0 W/m -8,6 C -7,5 C 3,2 km/h (1 Bft) 100 %
20.01.2016 01:20 -7,5 C -7,5 C -7,4 C 92 % 1018,4 hPa 0,0 l/m 0,0 km/h (0 Bft) O-SO 112 0 min 0,000 mm 0 W/m -8,6 C -7,5 C 3,2 km/h (1 Bft) 100 %
20.01.2016 01:30 -7,5 C -7,5 C -7,5 C 92 % 1018,6 hPa 0,0 l/m 0,0 km/h (0 Bft) N 0 0 min 0,000 mm 0 W/m -8,6 C -7,5 C 0,0 km/h (0 Bft) 96 %
20.01.2016 01:40 -7,6 C -7,6 C -7,5 C 92 % 1018,6 hPa 0,0 l/m 0,0 km/h (0 Bft) N 0 0 min 0,000 mm 0 W/m -8,7 C -7,6 C 0,0 km/h (0 Bft) 94 %
20.01.2016 01:50 -7,5 C -7,6 C -7,5 C 92 % 1018,5 hPa 0,0 l/m 0,0 km/h (0 Bft) N 0 0 min 0,000 mm 0 W/m -8,6 C -7,5 C 0,0 km/h (0 Bft) 100 %
20.01.2016 02:00 -7,5 C -7,5 C -7,5 C 92 % 1018,5 hPa 0,0 l/m 0,0 km/h (0 Bft) O-SO 112 0 min 0,000 mm 0 W/m -8,6 C -7,5 C 1,6 km/h (1 Bft) 100 %
20.01.2016 02:10 -7,4 C -7,5 C -7,4 C 92 % 1018,6 hPa 0,0 l/m 0,0 km/h (0 Bft) N 0 0 min 0,000 mm 0 W/m -8,5 C -7,4 C 0,0 km/h (0 Bft) 100 %
20.01.2016 02:20 -7,4 C -7,4 C -7,4 C 92 % 1018,6 hPa 0,0 l/m 0,0 km/h (0 Bft) N 0 0 min 0,000 mm 0 W/m -8,5 C -7,4 C 0,0 km/h (0 Bft) 100 %
20.01.2016 02:30 -7,4 C -7,4 C -7,3 C 92 % 1018,7 hPa 0,0 l/m 0,0 km/h (0 Bft) N 0 0 min 0,000 mm 0 W/m -8,5 C -7,4 C 0,0 km/h (0 Bft) 89 %
20.01.2016 02:40 -7,4 C -7,4 C -7,4 C 92 % 1018,8 hPa 0,0 l/m 0,0 km/h (0 Bft) N 0 0 min 0,000 mm 0 W/m -8,5 C -7,4 C 0,0 km/h (0 Bft) 100 %
20.01.2016 02:50 -7,3 C -7,4 C -7,3 C 92 % 1018,7 hPa 0,0 l/m 0,0 km/h (0 Bft) N 0 0 min 0,000 mm 0 W/m -8,4 C -7,3 C 0,0 km/h (0 Bft) 100 %
20.01.2016 03:00 -7,3 C -7,3 C -7,3 C 92 % 1018,7 hPa 0,0 l/m 0,0 km/h (0 Bft) N 0 0 min 0,000 mm 0 W/m -8,4 C -7,3 C 0,0 km/h (0 Bft) 100 %
20.01.2016 03:10 -7,3 C -7,3 C -7,2 C 92 % 1018,8 hPa 0,0 l/m 0,0 km/h (0 Bft) N 0 0 min 0,000 mm 0 W/m -8,4 C -7,3 C 0,0 km/h (0 Bft) 100 %
20.01.2016 03:20 -7,3 C -7,3 C -7,3 C 92 % 1019,0 hPa 0,0 l/m 0,0 km/h (0 Bft) N 0 0 min 0,000 mm 0 W/m -8,4 C -7,3 C 0,0 km/h (0 Bft) 96 %
20.01.2016 03:30 -7,3 C -7,3 C -7,2 C 92 % 1018,8 hPa 0,0 l/m 0,0 km/h (0 Bft) N 0 0 min 0,000 mm 0 W/m -8,4 C -7,3 C 0,0 km/h (0 Bft) 94 %
20.01.2016 03:40 -7,4 C -7,4 C -7,3 C 92 % 1018,8 hPa 0,0 l/m 0,0 km/h (0 Bft) N 0 0 min 0,000 mm 0 W/m -8,5 C -7,4 C 0,0 km/h (0 Bft) 100 %
20.01.2016 03:50 -7,4 C -7,4 C -7,4 C 92 % 1018,8 hPa 0,0 l/m 0,0 km/h (0 Bft) N 0 0 min 0,000 mm 0 W/m -8,5 C -7,4 C 0,0 km/h (0 Bft) 100 %
20.01.2016 04:00 -7,6 C -7,6 C -7,4 C 92 % 1018,9 hPa 0,0 l/m 0,0 km/h (0 Bft) N 0 0 min 0,000 mm 0 W/m -8,7 C -7,6 C 0,0 km/h (0 Bft) 100 %
20.01.2016 04:10 -7,6 C -7,6 C -7,6 C 92 % 1018,9 hPa 0,0 l/m 0,0 km/h (0 Bft) N 0 0 min 0,000 mm 0 W/m -8,7 C -7,6 C 0,0 km/h (0 Bft) 100 %
20.01.2016 04:20 -7,6 C -7,6 C -7,6 C 92 % 1018,9 hPa 0,0 l/m 0,0 km/h (0 Bft) N 0 0 min 0,000 mm 0 W/m -8,7 C -7,6 C 0,0 km/h (0 Bft) 90 %
20.01.2016 04:30 -7,7 C -7,7 C -7,6 C 92 % 1018,9 hPa 0,0 l/m 0,0 km/h (0 Bft) N 0 0 min 0,000 mm 0 W/m -8,8 C -7,7 C 0,0 km/h (0 Bft) 100 %
20.01.2016 04:40 -7,8 C -7,8 C -7,7 C 92 % 1018,9 hPa 0,0 l/m 0,0 km/h (0 Bft) N 0 0 min 0,000 mm 0 W/m -8,9 C -7,8 C 0,0 km/h (0 Bft) 100 %
20.01.2016 04:50 -7,8 C -7,8 C -7,8 C 92 % 1019,3 hPa 0,0 l/m 0,0 km/h (0 Bft) N 0 0 min 0,000 mm 0 W/m -8,9 C -7,8 C 0,0 km/h (0 Bft) 100 %
20.01.2016 05:00 -7,8 C -7,8 C -7,8 C 92 % 1019,3 hPa 0,0 l/m 0,0 km/h (0 Bft) N 0 0 min 0,000 mm 0 W/m -8,9 C -7,8 C 0,0 km/h (0 Bft) 100 %
20.01.2016 05:10 -7,8 C -7,8 C -7,8 C 92 % 1019,1 hPa 0,0 l/m 0,0 km/h (0 Bft) N 0 0 min 0,000 mm 0 W/m -8,9 C -7,8 C 0,0 km/h (0 Bft) 99 %
20.01.2016 05:20 -7,8 C -7,8 C -7,7 C 92 % 1019,3 hPa 0,0 l/m 0,0 km/h (0 Bft) N 0 0 min 0,000 mm 0 W/m -8,9 C -7,8 C 0,0 km/h (0 Bft) 93 %
20.01.2016 05:30 -7,8 C -7,8 C -7,7 C 92 % 1019,3 hPa 0,0 l/m 0,0 km/h (0 Bft) N 0 0 min 0,000 mm 0 W/m -8,9 C -7,8 C 0,0 km/h (0 Bft) 89 %
20.01.2016 05:40 -7,7 C -7,8 C -7,7 C 92 % 1019,3 hPa 0,0 l/m 0,0 km/h (0 Bft) N 0 0 min 0,000 mm 0 W/m -8,8 C -7,7 C 0,0 km/h (0 Bft) 98 %
20.01.2016 05:50 -7,7 C -7,8 C -7,7 C 92 % 1019,4 hPa 0,0 l/m 0,0 km/h (0 Bft) N 0 0 min 0,000 mm 0 W/m -8,8 C -7,7 C 0,0 km/h (0 Bft) 100 %
20.01.2016 06:00 -7,7 C -7,7 C -7,7 C 92 % 1019,5 hPa 0,0 l/m 0,0 km/h (0 Bft) N 0 0 min 0,000 mm 0 W/m -8,8 C -7,7 C 0,0 km/h (0 Bft) 89 %
20.01.2016 06:10 -7,7 C -7,7 C -7,7 C 92 % 1019,4 hPa 0,0 l/m 0,0 km/h (0 Bft) N 0 0 min 0,000 mm 0 W/m -8,8 C -7,7 C 0,0 km/h (0 Bft) 99 %
20.01.2016 06:20 -7,7 C -7,7 C -7,7 C 92 % 1019,4 hPa 0,0 l/m 0,0 km/h (0 Bft) N 0 0 min 0,000 mm 0 W/m -8,8 C -7,7 C 0,0 km/h (0 Bft) 100 %
20.01.2016 06:30 -7,8 C -7,8 C -7,7 C 92 % 1019,5 hPa 0,0 l/m 0,0 km/h (0 Bft) N 0 0 min 0,000 mm 0 W/m -8,9 C -7,8 C 0,0 km/h (0 Bft) 100 %
20.01.2016 06:40 -7,9 C -7,9 C -7,8 C 92 % 1019,4 hPa 0,0 l/m 0,0 km/h (0 Bft) N 0 0 min 0,000 mm 0 W/m -9,0 C -7,9 C 0,0 km/h (0 Bft) 100 %
20.01.2016 06:50 -8,0 C -8,0 C -7,9 C 92 % 1019,5 hPa 0,0 l/m 0,0 km/h (0 Bft) N 0 0 min 0,000 mm 0 W/m -9,1 C -8,0 C 0,0 km/h (0 Bft) 100 %
20.01.2016 07:00 -8,1 C -8,1 C -8,0 C 92 % 1019,5 hPa 0,0 l/m 0,0 km/h (0 Bft) N 0 0 min 0,000 mm 0 W/m -9,2 C -8,1 C 0,0 km/h (0 Bft) 90 %
20.01.2016 07:10 -8,1 C -8,1 C -8,1 C 92 % 1019,7 hPa 0,0 l/m 0,0 km/h (0 Bft) N 0 0 min 0,000 mm 0 W/m -9,2 C -8,1 C 0,0 km/h (0 Bft) 100 %
20.01.2016 07:20 -8,1 C -8,1 C -8,1 C 92 % 1020,0 hPa 0,0 l/m 0,0 km/h (0 Bft) N 0 0 min 0,000 mm 0 W/m -9,2 C -8,1 C 0,0 km/h (0 Bft) 99 %
20.01.2016 07:30 -8,1 C -8,2 C -8,1 C 92 % 1020,0 hPa 0,0 l/m 0,0 km/h (0 Bft) N 0 0 min 0,000 mm 0 W/m -9,2 C -8,1 C 0,0 km/h (0 Bft) 100 %
20.01.2016 07:40 -8,1 C -8,2 C -8,1 C 92 % 1020,0 hPa 0,0 l/m 0,0 km/h (0 Bft) N 0 0 min 0,000 mm 0 W/m -9,2 C -8,1 C 0,0 km/h (0 Bft) 100 %
20.01.2016 07:50 -8,1 C -8,2 C -8,1 C 92 % 1020,1 hPa 0,0 l/m 0,0 km/h (0 Bft) N 0 0 min 0,000 mm 0 W/m -9,2 C -8,1 C 0,0 km/h (0 Bft) 100 %
20.01.2016 08:00 -8,1 C -8,1 C -8,1 C 92 % 1020,2 hPa 0,0 l/m 0,0 km/h (0 Bft) N 0 0 min 0,000 mm 0 W/m -9,2 C -8,1 C 0,0 km/h (0 Bft) 98 %
20.01.2016 08:10 -8,1 C -8,1 C -8,1 C 92 % 1020,2 hPa 0,0 l/m 0,0 km/h (0 Bft) N 0 0 min 0,000 mm 0 W/m -9,2 C -8,1 C 0,0 km/h (0 Bft) 100 %
20.01.2016 08:20 -8,1 C -8,1 C -8,1 C 92 % 1020,3 hPa 0,0 l/m 0,0 km/h (0 Bft) N 0 0 min 0,000 mm 0 W/m -9,2 C -8,1 C 0,0 km/h (0 Bft) 100 %
20.01.2016 08:30 -8,1 C -8,1 C -8,1 C 92 % 1020,4 hPa 0,0 l/m 0,0 km/h (0 Bft) N 0 0 min 0,000 mm 0 W/m -9,2 C -8,1 C 0,0 km/h (0 Bft) 100 %
20.01.2016 08:40 -8,1 C -8,1 C -8,1 C 92 % 1020,5 hPa 0,0 l/m 0,0 km/h (0 Bft) N 0 0 min 0,000 mm 7 W/m -9,2 C -8,1 C 0,0 km/h (0 Bft) 100 %
20.01.2016 08:50 -8,1 C -8,1 C -8,1 C 92 % 1020,6 hPa 0,0 l/m 0,0 km/h (0 Bft) N 0 0 min 0,000 mm 11 W/m -9,2 C -8,1 C 0,0 km/h (0 Bft) 88 %
20.01.2016 09:00 -8,1 C -8,1 C -8,1 C 92 % 1020,7 hPa 0,0 l/m 0,0 km/h (0 Bft) N 0 0 min 0,000 mm 21 W/m -9,2 C -8,1 C 0,0 km/h (0 Bft) 100 %
20.01.2016 09:10 -8,1 C -8,1 C -8,1 C 92 % 1020,7 hPa 0,0 l/m 0,0 km/h (0 Bft) N 0 0 min 0,000 mm 51 W/m -9,2 C -8,1 C 0,0 km/h (0 Bft) 100 %
20.01.2016 09:20 -8,0 C -8,1 C -8,0 C 92 % 1020,8 hPa 0,0 l/m 0,0 km/h (0 Bft) N 0 0 min 0,000 mm 69 W/m -9,1 C -8,0 C 0,0 km/h (0 Bft) 100 %
20.01.2016 09:30 -7,9 C -8,0 C -7,9 C 92 % 1020,9 hPa 0,0 l/m 0,0 km/h (0 Bft) N 0 0 min 0,000 mm 60 W/m -9,0 C -7,9 C 0,0 km/h (0 Bft) 100 %
20.01.2016 09:40 -7,8 C -7,9 C -7,8 C 92 % 1020,9 hPa 0,0 l/m 0,0 km/h (0 Bft) N 0 0 min 0,000 mm 51 W/m -8,9 C -7,8 C 0,0 km/h (0 Bft) 91 %
20.01.2016 09:50 -7,7 C -7,8 C -7,7 C 92 % 1020,9 hPa 0,0 l/m 0,0 km/h (0 Bft) N 0 0 min 0,000 mm 83 W/m -8,8 C -7,7 C 0,0 km/h (0 Bft) 100 %
20.01.2016 10:00 -7,7 C -7,7 C -7,6 C 92 % 1020,9 hPa 0,0 l/m 0,0 km/h (0 Bft) N 0 0 min 0,000 mm 72 W/m -8,8 C -7,7 C 0,0 km/h (0 Bft) 100 %
20.01.2016 10:10 -7,6 C -7,7 C -7,6 C 92 % 1020,9 hPa 0,0 l/m 0,0 km/h (0 Bft) N 0 0 min 0,000 mm 114 W/m -8,7 C -7,6 C 0,0 km/h (0 Bft) 84 %
20.01.2016 10:20 -7,6 C -7,6 C -7,5 C 92 % 1021,0 hPa 0,0 l/m 0,0 km/h (0 Bft) N 0 0 min 0,000 mm 116 W/m -8,7 C -7,6 C 0,0 km/h (0 Bft) 93 %
20.01.2016 10:30 -7,5 C -7,6 C -7,5 C 92 % 1021,1 hPa 0,0 l/m 0,0 km/h (0 Bft) N 0 0 min 0,000 mm 88 W/m -8,6 C -7,5 C 0,0 km/h (0 Bft) 89 %
20.01.2016 10:40 -7,3 C -7,6 C -7,3 C 92 % 1021,1 hPa 0,0 l/m 0,0 km/h (0 Bft) SW 215 0 min 0,000 mm 76 W/m -8,4 C -7,3 C 0,0 km/h (0 Bft) 87 %
20.01.2016 10:50 -7,2 C -7,3 C -7,2 C 92 % 1021,2 hPa 0,0 l/m 0,0 km/h (0 Bft) SW 218 0 min 0,000 mm 54 W/m -8,3 C -7,2 C 0,0 km/h (0 Bft) 99 %
20.01.2016 11:00 -7,2 C -7,2 C -7,2 C 92 % 1021,0 hPa 0,0 l/m 0,0 km/h (0 Bft) S 183 0 min 0,000 mm 70 W/m -8,3 C -7,2 C 0,0 km/h (0 Bft) 100 %
20.01.2016 11:10 -7,1 C -7,2 C -7,1 C 92 % 1021,3 hPa 0,0 l/m 0,0 km/h (0 Bft) SW 214 0 min 0,025 mm 95 W/m -8,2 C -7,1 C 0,0 km/h (0 Bft) 99 %
20.01.2016 11:20 -7,1 C -7,1 C -7,0 C 92 % 1021,3 hPa 0,0 l/m 0,0 km/h (0 Bft) S 188 0 min 0,000 mm 113 W/m -8,2 C -7,1 C 0,0 km/h (0 Bft) 100 %
20.01.2016 11:30 -6,9 C -7,1 C -6,9 C 92 % 1021,1 hPa 0,0 l/m 0,0 km/h (0 Bft) S-SW 205 0 min 0,000 mm 132 W/m -8,0 C -6,9 C 0,0 km/h (0 Bft) 100 %
20.01.2016 11:40 -6,8 C -6,9 C -6,8 C 92 % 1021,1 hPa 0,0 l/m 0,0 km/h (0 Bft) S-SW 196 0 min 0,000 mm 118 W/m -7,9 C -6,8 C 0,0 km/h (0 Bft) 100 %
20.01.2016 11:50 -6,8 C -6,8 C -6,8 C 92 % 1021,0 hPa 0,0 l/m 0,0 km/h (0 Bft) S 180 0 min 0,000 mm 86 W/m -7,9 C -6,8 C 0,0 km/h (0 Bft) 91 %
20.01.2016 12:00 -6,9 C -7,0 C -6,8 C 92 % 1020,9 hPa 0,0 l/m 0,0 km/h (0 Bft) S-SW 209 10 min 0,000 mm 188 W/m -8,0 C -6,9 C 0,0 km/h (0 Bft) 100 %
20.01.2016 12:10 -6,6 C -6,9 C -6,6 C 92 % 1021,0 hPa 0,0 l/m 0,0 km/h (0 Bft) S 189 10 min 0,025 mm 199 W/m -7,7 C -6,6 C 0,0 km/h (0 Bft) 100 %
20.01.2016 12:20 -6,4 C -6,6 C -6,3 C 92 % 1020,9 hPa 0,0 l/m 0,0 km/h (0 Bft) S 188 0 min 0,001 mm 149 W/m -7,5 C -6,4 C 0,0 km/h (0 Bft) 91 %
20.01.2016 12:30 -6,4 C -6,4 C -6,4 C 92 % 1020,9 hPa 0,0 l/m 0,0 km/h (0 Bft) S 186 10 min 0,000 mm 197 W/m -7,5 C -6,4 C 0,0 km/h (0 Bft) 100 %
20.01.2016 12:40 -6,4 C -6,4 C -6,4 C 92 % 1020,8 hPa 0,0 l/m 0,0 km/h (0 Bft) S-SW 198 0 min 0,000 mm 116 W/m -7,5 C -6,4 C 0,0 km/h (0 Bft) 100 %
20.01.2016 12:50 -6,1 C -6,4 C -6,1 C 92 % 1020,8 hPa 0,0 l/m 0,0 km/h (0 Bft) S-SW 196 10 min 0,000 mm 179 W/m -7,2 C -6,1 C 0,0 km/h (0 Bft) 100 %
20.01.2016 13:00 -6,1 C -6,1 C -6,1 C 92 % 1020,7 hPa 0,0 l/m 0,0 km/h (0 Bft) S 190 0 min 0,000 mm 144 W/m -7,2 C -6,1 C 0,0 km/h (0 Bft) 100 %
20.01.2016 13:10 -5,9 C -6,1 C -5,9 C 92 % 1020,7 hPa 0,0 l/m 0,0 km/h (0 Bft) S-SW 204 10 min 0,051 mm 162 W/m -7,0 C -5,9 C 0,0 km/h (0 Bft) 100 %
20.01.2016 13:20 -5,8 C -5,9 C -5,8 C 92 % 1020,7 hPa 0,0 l/m 0,0 km/h (0 Bft) S-SW 204 10 min 0,000 mm 304 W/m -6,9 C -5,8 C 0,0 km/h (0 Bft) 99 %
20.01.2016 13:30 -5,8 C -5,8 C -5,7 C 92 % 1020,7 hPa 0,0 l/m 0,0 km/h (0 Bft) S-SW 207 0 min 0,000 mm 151 W/m -6,9 C -5,8 C 0,0 km/h (0 Bft) 90 %
20.01.2016 13:40 -5,9 C -5,9 C -5,8 C 92 % 1020,7 hPa 0,0 l/m 0,0 km/h (0 Bft) S-SW 199 10 min 0,000 mm 199 W/m -7,0 C -5,9 C 0,0 km/h (0 Bft) 100 %
20.01.2016 13:50 -5,8 C -5,9 C -5,8 C 92 % 1020,6 hPa 0,0 l/m 0,0 km/h (0 Bft) S 190 10 min 0,000 mm 178 W/m -6,9 C -5,8 C 0,0 km/h (0 Bft) 100 %
20.01.2016 14:00 -5,8 C -5,8 C -5,7 C 92 % 1020,5 hPa 0,0 l/m 0,0 km/h (0 Bft) S 180 10 min 0,050 mm 178 W/m -6,9 C -5,8 C 0,0 km/h (0 Bft) 91 %
20.01.2016 14:10 -5,3 C -5,8 C -5,3 C 92 % 1020,4 hPa 0,0 l/m 0,0 km/h (0 Bft) S-SW 196 10 min 0,000 mm 232 W/m -6,4 C -5,3 C 0,0 km/h (0 Bft) 100 %
20.01.2016 14:20 -5,1 C -5,3 C -5,1 C 92 % 1020,2 hPa 0,0 l/m 0,0 km/h (0 Bft) S 190 10 min 0,000 mm 221 W/m -6,2 C -5,1 C 0,0 km/h (0 Bft) 100 %
20.01.2016 14:30 -4,8 C -5,1 C -4,8 C 91 % 1020,3 hPa 0,0 l/m 0,0 km/h (0 Bft) S-SW 194 10 min 0,000 mm 258 W/m -6,0 C -4,8 C 0,0 km/h (0 Bft) 100 %
20.01.2016 14:40 -4,5 C -4,8 C -4,5 C 91 % 1020,2 hPa 0,0 l/m 0,0 km/h (0 Bft) S 186 10 min 0,000 mm 171 W/m -5,7 C -4,5 C 0,0 km/h (0 Bft) 100 %
20.01.2016 14:50 -4,3 C -4,5 C -4,3 C 91 % 1020,1 hPa 0,0 l/m 2,0 km/h (1 Bft) S 188 10 min 0,000 mm 248 W/m -5,5 C -4,3 C 8,0 km/h (2 Bft) 100 %
20.01.2016 15:00 -3,9 C -4,3 C -3,9 C 90 % 1020,1 hPa 0,0 l/m 3,4 km/h (1 Bft) S 188 10 min 0,051 mm 227 W/m -5,3 C -3,9 C 9,7 km/h (2 Bft) 100 %
20.01.2016 15:10 -3,7 C -3,9 C -3,7 C 88 % 1020,1 hPa 0,0 l/m 4,3 km/h (1 Bft) S-SW 198 0 min 0,000 mm 144 W/m -5,4 C -3,7 C 8,0 km/h (2 Bft) 100 %
20.01.2016 15:20 -3,8 C -3,8 C -3,7 C 88 % 1020,2 hPa 0,0 l/m 5,1 km/h (1 Bft) S 182 10 min 0,000 mm 158 W/m -5,5 C -3,8 C 9,7 km/h (2 Bft) 100 %
20.01.2016 15:30 -4,0 C -4,0 C -3,8 C 88 % 1020,3 hPa 0,0 l/m 4,3 km/h (1 Bft) S 185 0 min 0,000 mm 70 W/m -5,7 C -4,0 C 9,7 km/h (2 Bft) 100 %
20.01.2016 15:40 -4,1 C -4,1 C -4,0 C 88 % 1020,2 hPa 0,0 l/m 2,4 km/h (1 Bft) S-SW 192 0 min 0,000 mm 77 W/m -5,8 C -4,1 C 6,4 km/h (2 Bft) 100 %
20.01.2016 15:50 -4,0 C -4,1 C -4,0 C 88 % 1020,2 hPa 0,0 l/m 4,1 km/h (1 Bft) S-SW 193 0 min 0,000 mm 65 W/m -5,7 C -4,0 C 8,0 km/h (2 Bft) 100 %
20.01.2016 16:00 -4,1 C -4,1 C -4,0 C 88 % 1020,1 hPa 0,0 l/m 4,6 km/h (1 Bft) S 186 0 min 0,026 mm 60 W/m -5,8 C -4,1 C 8,0 km/h (2 Bft) 99 %
20.01.2016 16:10 -4,1 C -4,1 C -4,1 C 88 % 1020,0 hPa 0,0 l/m 3,1 km/h (1 Bft) S 187 0 min 0,000 mm 60 W/m -5,8 C -4,1 C 6,4 km/h (2 Bft) 99 %
20.01.2016 16:20 -4,2 C -4,2 C -4,1 C 89 % 1019,9 hPa 0,0 l/m 3,5 km/h (1 Bft) S-SO 167 0 min 0,000 mm 49 W/m -5,7 C -4,2 C 6,4 km/h (2 Bft) 97 %
20.01.2016 16:30 -4,1 C -4,2 C -4,1 C 90 % 1020,1 hPa 0,0 l/m 1,3 km/h (1 Bft) S 175 0 min 0,000 mm 30 W/m -5,5 C -4,1 C 6,4 km/h (2 Bft) 97 %
20.01.2016 16:40 -4,0 C -4,1 C -4,0 C 89 % 1020,5 hPa 0,0 l/m 0,4 km/h (0 Bft) W-SW 253 0 min 0,000 mm 18 W/m -5,5 C -4,0 C 3,2 km/h (1 Bft) 88 %
20.01.2016 16:50 -4,0 C -4,0 C -4,0 C 89 % 1020,5 hPa 0,0 l/m 0,0 km/h (0 Bft) W-SW 254 0 min 0,000 mm 9 W/m -5,5 C -4,0 C 1,6 km/h (1 Bft) 97 %
20.01.2016 17:00 -4,1 C -4,1 C -4,0 C 89 % 1020,4 hPa 0,0 l/m 0,3 km/h (0 Bft) W-SW 250 0 min 0,000 mm 7 W/m -5,6 C -4,1 C 3,2 km/h (1 Bft) 97 %
20.01.2016 17:10 -4,2 C -4,2 C -4,1 C 90 % 1020,4 hPa 0,0 l/m 1,0 km/h (0 Bft) SW 233 0 min 0,000 mm 0 W/m -5,6 C -4,2 C 3,2 km/h (1 Bft) 97 %
20.01.2016 17:20 -4,2 C -4,2 C -4,2 C 90 % 1020,5 hPa 0,0 l/m 0,0 km/h (0 Bft) SW 233 0 min 0,000 mm 0 W/m -5,6 C -4,2 C 1,6 km/h (1 Bft) 98 %
20.01.2016 17:30 -4,4 C -4,4 C -4,2 C 90 % 1020,5 hPa 0,0 l/m 0,0 km/h (0 Bft) SW 233 0 min 0,000 mm 0 W/m -5,8 C -4,4 C 0,0 km/h (0 Bft) 98 %
20.01.2016 17:40 -4,7 C -4,7 C -4,4 C 90 % 1020,5 hPa 0,0 l/m 0,3 km/h (0 Bft) SW 233 0 min 0,000 mm 0 W/m -6,1 C -4,7 C 3,2 km/h (1 Bft) 97 %
20.01.2016 17:50 -4,7 C -4,7 C -4,7 C 91 % 1020,6 hPa 0,0 l/m 0,0 km/h (0 Bft) SW 233 0 min 0,000 mm 0 W/m -5,9 C -4,7 C 0,0 km/h (0 Bft) 97 %
20.01.2016 18:00 -4,6 C -4,7 C -4,6 C 91 % 1020,6 hPa 0,0 l/m 0,0 km/h (0 Bft) SW 233 0 min 0,000 mm 0 W/m -5,8 C -4,6 C 0,0 km/h (0 Bft) 98 %
20.01.2016 18:10 -4,5 C -4,6 C -4,5 C 90 % 1020,8 hPa 0,0 l/m 0,0 km/h (0 Bft) SW 233 0 min 0,000 mm 0 W/m -5,9 C -4,5 C 0,0 km/h (0 Bft) 97 %
20.01.2016 18:20 -4,5 C -4,5 C -4,4 C 90 % 1020,7 hPa 0,0 l/m 0,0 km/h (0 Bft) SW 233 0 min 0,000 mm 0 W/m -5,9 C -4,5 C 0,0 km/h (0 Bft) 90 %
20.01.2016 18:30 -4,5 C -4,5 C -4,4 C 90 % 1020,7 hPa 0,0 l/m 0,0 km/h (0 Bft) SW 233 0 min 0,000 mm 0 W/m -5,9 C -4,5 C 1,6 km/h (1 Bft) 98 %
20.01.2016 18:40 -4,7 C -4,7 C -4,5 C 90 % 1020,7 hPa 0,0 l/m 0,0 km/h (0 Bft) SW 233 0 min 0,000 mm 0 W/m -6,1 C -4,7 C 0,0 km/h (0 Bft) 97 %
20.01.2016 18:50 -4,8 C -4,8 C -4,7 C 89 % 1020,7 hPa 0,0 l/m 0,0 km/h (0 Bft) SW 233 0 min 0,000 mm 0 W/m -6,3 C -4,8 C 0,0 km/h (0 Bft) 90 %
20.01.2016 19:00 -4,9 C -5,0 C -4,8 C 90 % 1020,8 hPa 0,0 l/m 0,0 km/h (0 Bft) SW 233 0 min 0,000 mm 0 W/m -6,3 C -4,9 C 0,0 km/h (0 Bft) 98 %
20.01.2016 19:10 -4,8 C -4,9 C -4,8 C 90 % 1020,8 hPa 0,0 l/m 0,3 km/h (0 Bft) SW 233 0 min 0,000 mm 0 W/m -6,2 C -4,8 C 1,6 km/h (1 Bft) 98 %
20.01.2016 19:20 -4,8 C -4,8 C -4,8 C 90 % 1020,8 hPa 0,0 l/m 0,1 km/h (0 Bft) SW 233 0 min 0,000 mm 0 W/m -6,2 C -4,8 C 1,6 km/h (1 Bft) 98 %
20.01.2016 19:30 -5,0 C -5,0 C -4,8 C 91 % 1021,0 hPa 0,0 l/m 0,0 km/h (0 Bft) SW 233 0 min 0,000 mm 0 W/m -6,2 C -5,0 C 0,0 km/h (0 Bft) 98 %
20.01.2016 19:40 -5,0 C -5,0 C -4,9 C 91 % 1021,1 hPa 0,0 l/m 0,0 km/h (0 Bft) SW 233 0 min 0,000 mm 0 W/m -6,2 C -5,0 C 0,0 km/h (0 Bft) 97 %
20.01.2016 19:50 -5,1 C -5,1 C -5,0 C 91 % 1021,2 hPa 0,0 l/m 0,0 km/h (0 Bft) SW 233 0 min 0,000 mm 0 W/m -6,3 C -5,1 C 0,0 km/h (0 Bft) 98 %
20.01.2016 20:00 -5,0 C -5,1 C -5,0 C 91 % 1021,3 hPa 0,0 l/m 0,0 km/h (0 Bft) SW 233 0 min 0,000 mm 0 W/m -6,2 C -5,0 C 0,0 km/h (0 Bft) 97 %
20.01.2016 20:10 -4,8 C -5,0 C -4,8 C 91 % 1021,3 hPa 0,0 l/m 0,5 km/h (0 Bft) SW 233 0 min 0,000 mm 0 W/m -6,0 C -4,8 C 3,2 km/h (1 Bft) 98 %
20.01.2016 20:20 -4,7 C -4,8 C -4,7 C 91 % 1021,4 hPa 0,0 l/m 0,4 km/h (0 Bft) SW 233 0 min 0,000 mm 0 W/m -5,9 C -4,7 C 3,2 km/h (1 Bft) 90 %
20.01.2016 20:30 -4,4 C -4,7 C -4,4 C 91 % 1021,6 hPa 0,0 l/m 1,1 km/h (1 Bft) SW 229 0 min 0,000 mm 0 W/m -5,6 C -4,4 C 4,8 km/h (1 Bft) 99 %
20.01.2016 20:40 -4,4 C -4,4 C -4,4 C 90 % 1021,5 hPa 0,0 l/m 0,4 km/h (0 Bft) SW 228 0 min 0,000 mm 0 W/m -5,8 C -4,4 C 4,8 km/h (1 Bft) 99 %
20.01.2016 20:50 -4,3 C -4,4 C -4,3 C 90 % 1021,4 hPa 0,0 l/m 1,1 km/h (1 Bft) SW 228 0 min 0,000 mm 0 W/m -5,7 C -4,3 C 3,2 km/h (1 Bft) 100 %
20.01.2016 21:00 -4,1 C -4,3 C -4,1 C 90 % 1021,4 hPa 0,0 l/m 1,0 km/h (0 Bft) SW 228 0 min 0,000 mm 0 W/m -5,5 C -4,1 C 3,2 km/h (1 Bft) 100 %
20.01.2016 21:10 -3,9 C -4,1 C -3,9 C 90 % 1021,5 hPa 0,0 l/m 3,2 km/h (1 Bft) S-SW 202 0 min 0,000 mm 0 W/m -5,3 C -3,9 C 6,4 km/h (2 Bft) 100 %
20.01.2016 21:20 -3,9 C -3,9 C -3,9 C 90 % 1021,6 hPa 0,0 l/m 3,2 km/h (1 Bft) S 180 0 min 0,000 mm 0 W/m -5,3 C -3,9 C 6,4 km/h (2 Bft) 100 %
20.01.2016 21:30 -4,0 C -4,0 C -3,9 C 90 % 1021,7 hPa 0,0 l/m 1,6 km/h (1 Bft) S-SO 157 0 min 0,000 mm 0 W/m -5,4 C -4,0 C 4,8 km/h (1 Bft) 100 %
20.01.2016 21:40 -4,0 C -4,0 C -3,9 C 90 % 1021,7 hPa 0,0 l/m 1,6 km/h (1 Bft) S-SO 157 0 min 0,000 mm 0 W/m -5,4 C -4,0 C 6,4 km/h (2 Bft) 100 %
20.01.2016 21:50 -4,1 C -4,1 C -4,0 C 90 % 1021,6 hPa 0,0 l/m 1,6 km/h (1 Bft) S-SO 157 0 min 0,000 mm 0 W/m -5,5 C -4,1 C 6,4 km/h (2 Bft) 100 %
20.01.2016 22:00 -4,1 C -4,2 C -4,1 C 90 % 1021,7 hPa 0,0 l/m 3,2 km/h (1 Bft) S-SO 157 0 min 0,000 mm 0 W/m -5,5 C -4,1 C 8,0 km/h (2 Bft) 100 %
20.01.2016 22:10 -3,9 C -4,1 C -3,9 C 90 % 1021,8 hPa 0,0 l/m 1,6 km/h (1 Bft) SO 135 0 min 0,000 mm 0 W/m -5,3 C -3,9 C 8,0 km/h (2 Bft) 100 %
20.01.2016 22:20 -3,9 C -3,9 C -3,9 C 90 % 1021,7 hPa 0,0 l/m 3,2 km/h (1 Bft) SO 135 0 min 0,000 mm 0 W/m -5,3 C -3,9 C 6,4 km/h (2 Bft) 100 %
20.01.2016 22:30 -3,9 C -3,9 C -3,9 C 90 % 1021,8 hPa 0,0 l/m 0,0 km/h (0 Bft) S-SO 157 0 min 0,000 mm 0 W/m -5,3 C -3,9 C 3,2 km/h (1 Bft) 91 %
20.01.2016 22:40 -3,9 C -3,9 C -3,9 C 90 % 1022,0 hPa 0,0 l/m 0,0 km/h (0 Bft) S-SO 157 0 min 0,000 mm 0 W/m -5,3 C -3,9 C 1,6 km/h (1 Bft) 100 %
20.01.2016 22:50 -3,9 C -3,9 C -3,9 C 90 % 1022,0 hPa 0,0 l/m 0,0 km/h (0 Bft) S-SO 157 0 min 0,000 mm 0 W/m -5,3 C -3,9 C 4,8 km/h (1 Bft) 100 %
20.01.2016 23:00 -4,1 C -4,1 C -3,9 C 91 % 1022,1 hPa 0,0 l/m 1,6 km/h (1 Bft) S-SO 157 0 min 0,000 mm 0 W/m -5,3 C -4,1 C 4,8 km/h (1 Bft) 99 %
20.01.2016 23:10 -4,1 C -4,1 C -4,1 C 91 % 1022,2 hPa 0,0 l/m 0,0 km/h (0 Bft) S-SO 157 0 min 0,000 mm 0 W/m -5,3 C -4,1 C 4,8 km/h (1 Bft) 100 %
20.01.2016 23:20 -3,9 C -4,1 C -3,9 C 91 % 1022,2 hPa 0,0 l/m 0,0 km/h (0 Bft) S-SO 157 0 min 0,000 mm 0 W/m -5,1 C -3,9 C 3,2 km/h (1 Bft) 100 %
20.01.2016 23:30 -3,8 C -3,9 C -3,8 C 91 % 1022,2 hPa 0,0 l/m 0,0 km/h (0 Bft) S-SO 157 0 min 0,000 mm 0 W/m -5,0 C -3,8 C 3,2 km/h (1 Bft) 100 %
20.01.2016 23:40 -3,7 C -3,8 C -3,7 C 91 % 1022,5 hPa 0,0 l/m 0,0 km/h (0 Bft) N 0 0 min 0,000 mm 0 W/m -4,9 C -3,7 C 0,0 km/h (0 Bft) 100 %
20.01.2016 23:50 -3,7 C -3,7 C -3,7 C 91 % 1022,5 hPa 0,0 l/m 0,0 km/h (0 Bft) N 0 0 min 0,000 mm 0 W/m -4,9 C -3,7 C 0,0 km/h (0 Bft) 100 %
_ Min-Zeit 00:00 00:00 00:00 15:10 00:40 - 00:00 - - - - - 00:10 00:00 00:00 10:10
Minimum _ -8,2 C -8,4 C -8,2 C 88 % 1018,4 hPa - 0,0 km/h (0 Bft) - - - - - -9,3 C -8,2 C 0,0 km/h (0 Bft) 84 %
_ Max-Zeit 15:10 23:50 15:10 00:00 23:40 00:00 15:20 - - 12:00 13:10 13:20 23:40 15:10 15:00 00:00
Maximum _ -3,7 C -3,7 C -3,7 C 92 % 1022,5 hPa 0,0 l/m 5,1 km/h
S (1 Bft)
- - 10 min 0,051 mm 304 W/m -4,9 C -3,7 C 9,7 km/h
S-SW (2 Bft)
100 %
Durchschnitt _ -6,2 C -6,2 C -6,1 C 91 % 1020,3 hPa #0,0 l/m 0,5 km/h (0 Bft) S - #2:40 h #0,229 mm 116 W/m -7,4 C -6,2 C 1,5 km/h (1 Bft) 98 %
PRIVATE WETTERSTATION BILLIGHEIM-ALLFELD - www.neckar-odenwald-wetter.de - Holger Sonntag